EW9968 Weather Reports


time (UTC)temp
C
wind
direction
speed
KPH
gust
KPH
rain 1hr
cm
rain 24hr
cm
rain mn
cm
humidity
%
barometer
mb
20260507191545 17 41 0.0 0.0 0.00 0.18 0.00 38 1005.8
20260507190040 18 135 0.0 0.0 0.00 0.18 0.00 37 1006.1
20260507184536 17 233 3.2 8.0 0.00 0.20 0.00 35 1006.1
20260507183039 17 51 0.0 0.0 0.00 0.20 0.00 35 1006.2
20260507181533 17 37 0.0 3.2 0.00 0.20 0.00 36 1006.6
20260507180031 18 278 1.6 9.7 0.00 0.20 0.00 36 1006.3
20260507174529 17 20 1.6 8.0 0.00 0.20 0.00 31 1006.5
20260507173027 17 289 1.6 8.0 0.00 0.20 0.00 32 1006.3
20260507171526 17 238 0.0 6.4 0.00 0.20 0.00 33 1006.3
20260507170126 17 323 0.0 3.2 0.00 0.20 0.00 39 1006.5
20260507164523 17 274 0.0 9.7 0.00 0.20 0.00 43 1006.6
20260507163022 17 223 0.0 6.4 0.00 0.20 0.00 42 1006.7
20260507161522 16 205 0.0 6.4 0.00 0.20 0.00 45 1007.0
20260507160030 16 231 1.6 4.8 0.00 0.20 0.00 46 1007.0
20260507154517 16 322 0.0 0.0 0.00 0.20 0.00 48 1007.1
20260507153020 16 210 0.0 0.0 0.00 0.20 0.00 56 1007.0
20260507151512 15 290 0.0 0.0 0.00 0.20 0.00 59 1007.2
20260507150011 15 259 0.0 0.0 0.00 0.20 0.00 61 1007.4
20260507144520 15 292 0.0 0.0 0.00 0.20 0.00 64 1007.5
20260507143008 15 254 0.0 0.0 0.00 0.20 0.00 65 1007.6
20260507141506 15 266 0.0 0.0 0.00 0.20 0.00 68 1007.5
20260507140006 15 277 0.0 0.0 0.00 0.20 0.00 65 1007.5
20260507134504 13 239 0.0 0.0 0.00 0.20 0.00 68 1007.4
20260507133005 14 125 0.0 1.6 0.00 0.20 0.00 70 1007.3
20260507131600 13 290 0.0 1.6 0.00 0.20 0.00 72 1007.6
20260507130055 13 217 0.0 0.0 0.00 0.20 0.00 74 1007.7
20260507124553 12 279 0.0 0.0 0.00 0.20 0.00 75 1007.8
20260507123051 12 292 0.0 0.0 0.00 0.20 0.00 78 1008.0
20260507121546 11 39 0.0 0.0 0.00 0.20 0.00 82 1008.0
20260507120044 10 265 0.0 1.6 0.00 0.20 0.00 85 1008.0
20260507114550 10 40 0.0 0.0 0.00 0.20 0.00 87 1007.9
20260507113038 9 46 0.0 0.0 0.00 0.20 0.00 89 1007.8
20260507111538 8 236 0.0 0.0 0.00 0.20 0.00 90 1007.7
20260507110032 -17 0.0 0.0 0.00 0.20 0.00 1007.5
20260507104525 -17 0.0 0.0 0.00 0.20 0.00 1007.8
20260507103023 -17 0.0 0.0 0.00 0.20 0.00 1007.3
20260507101518 -17 0.0 0.0 0.00 0.20 0.00 1006.8
20260507100014 -17 0.0 0.0 0.00 0.20 0.00 1007.0
20260507094508 -17 0.0 0.0 0.00 0.20 0.00 1006.8
20260507093004 -17 0.0 0.0 0.00 0.20 0.00 1007.3
20260507091559 -17 0.0 0.0 0.00 0.20 0.00 1007.5
20260507090106 -17 0.0 0.0 0.00 0.20 0.00 1007.7
20260507084551 -17 0.0 0.0 0.00 0.20 0.00 1007.7
20260507083047 -17 0.0 0.0 0.00 0.20 0.00 1007.1
20260507081541 -17 0.0 0.0 0.00 0.20 0.00 1007.0
20260507080039 -17 0.0 0.0 0.00 0.20 0.00 1007.0
20260507074533 -17 0.0 0.0 0.00 0.20 0.00 1007.1
20260507073030 -17 0.0 0.0 0.00 0.20 0.00 1007.1
20260507071528 -17 0.0 0.0 0.00 0.20 0.00 1006.7
20260507070022 -17 0.0 0.0 0.00 0.20 0.00 1006.3
20260507064517 -17 0.0 0.0 0.00 0.20 0.00 1006.0
20260507063012 -17 0.0 0.0 0.00 0.20 0.00 1006.4
20260507061509 -17 0.0 0.0 0.00 0.20 0.00 1006.4
20260507060005 -17 0.0 0.0 0.00 0.20 0.00 1006.4
20260507054609 -17 0.0 0.0 0.00 0.20 0.00 1006.4
20260507053056 -17 0.0 0.0 0.00 0.20 0.00 1006.9
20260507051553 -17 0.0 0.0 0.00 0.20 0.00 1006.7
20260507050047 -17 0.0 0.0 0.00 0.20 0.00 1006.7
20260507044543 -17 0.0 0.0 0.00 0.20 0.00 1006.6
20260507043038 -17 0.0 0.0 0.00 0.20 0.00 1006.6
20260507041548 -17 0.0 0.0 0.00 0.20 0.00 1006.4
20260507040030 -17 0.0 0.0 0.00 0.20 0.00 1006.4
20260507034526 -17 0.0 0.0 0.00 0.20 0.20 1006.4
20260507033021 -17 0.0 0.0 0.00 0.20 0.20 1006.1
20260507031617 -17 0.0 0.0 0.00 0.20 0.20 1006.0
20260507030013 -17 0.0 0.0 0.00 0.20 0.20 1005.5
20260507024508 -17 0.0 0.0 0.00 0.20 0.20 1005.4
20260507023004 -17 0.0 0.0 0.00 0.20 0.20 1005.7
20260507021600 -17 0.0 0.0 0.00 0.20 0.20 1005.6
20260507020055 -17 0.0 0.0 0.00 0.20 0.20 1005.2
20260507014604 14 186 0.0 1.6 0.00 0.20 0.20 94 1005.5
20260507013110 14 219 0.0 0.0 0.00 0.20 0.20 94 1005.6
20260507011549 14 233 0.0 1.6 0.00 0.20 0.20 94 1005.4
20260507010047 14 243 0.0 1.6 0.00 0.20 0.20 94 1005.6
20260507004548 14 220 0.0 1.6 0.00 0.20 0.20 94 1005.6
20260507003045 14 229 0.0 11.3 0.00 0.20 0.20 94 1005.7
20260507001604 14 203 0.0 0.0 0.00 0.20 0.20 94 1005.5
20260507000047 14 45 0.0 0.0 0.00 0.20 0.20 94 1005.4
20260506234543 14 225 0.0 0.0 0.00 0.20 0.20 94 1005.4
20260506233046 14 221 0.0 1.6 0.00 0.20 0.20 94 1005.2
20260506231547 15 236 0.0 1.6 0.03 0.20 0.20 93 1005.2
20260506230041 15 159 0.0 11.3 0.05 0.20 0.20 93 1005.3
20260506224540 15 207 0.0 0.0 0.05 0.20 0.20 93 1005.3
20260506223049 15 181 0.0 4.8 0.03 0.18 0.18 93 1005.4
20260506221537 15 188 0.0 6.4 0.03 0.18 0.18 92 1005.5
20260506220036 15 177 0.0 19.3 0.00 0.15 0.15 92 1005.6
20260506214535 15 242 0.0 6.4 0.03 0.15 0.15 91 1005.7
20260506213037 15 181 0.0 6.4 0.03 0.15 0.15 91 1005.8
20260506211533 15 189 0.0 4.8 0.03 0.15 0.15 91 1006.0
20260506210038 15 162 0.0 0.0 0.05 0.15 0.15 92 1006.2
20260506204530 15 205 0.0 9.7 0.05 0.13 0.13 91 1006.3
20260506203040 15 153 0.0 6.4 0.05 0.13 0.13 91 1006.3
20260506201529 15 214 1.6 11.3 0.05 0.13 0.13 90 1006.3
20260506200028 16 188 0.0 6.4 0.05 0.10 0.10 90 1006.1
20260506194528 16 227 0.0 6.4 0.08 0.08 0.08 89 1006.3
20260506193027 16 236 0.0 0.0 0.08 0.08 0.08 90 1006.4